FW9676 Weather Reports


Display with metric or nautical units.
time (UTC)temp
F
wind
direction
speed
MPH
gust
MPH
rain 1hr
in
rain 24hr
in
rain mn
in
humidity
%
barometer
mb
20260903051538 70 250 5.0 14.0 0.00 0.00 0.00 80 1014.4
20260903051017 70 250 5.0 14.0 0.00 0.00 0.00 81 1014.4
20260903050519 70 227 3.0 11.0 0.00 0.00 0.00 81 1014.4
20260903050043 70 250 4.0 12.0 0.00 0.00 0.00 82 1014.5
20260903045520 70 264 5.0 15.0 0.00 0.00 0.00 81 1014.5
20260903045023 70 228 5.0 15.0 0.00 0.00 0.00 82 1014.5
20260903044539 70 227 5.0 13.0 0.00 0.00 0.00 82 1014.5
20260903044022 70 226 7.0 13.0 0.00 0.00 0.00 82 1014.5
20260903043519 70 232 4.0 11.0 0.00 0.00 0.00 82 1014.5
20260903043033 70 275 5.0 11.0 0.00 0.00 0.00 82 1014.4
20260903042518 70 229 5.0 12.0 0.00 0.00 0.00 82 1014.5
20260903042018 70 246 7.0 14.0 0.00 0.00 0.00 82 1014.4
20260903041537 70 261 6.0 14.0 0.00 0.00 0.00 83 1014.3
20260903041021 70 257 5.0 12.0 0.00 0.00 0.00 83 1014.3
20260903040520 70 244 5.0 12.0 0.00 0.00 0.00 83 1014.3
20260903040038 70 279 5.0 12.0 0.00 0.00 0.00 84 1014.2
20260903035523 70 236 5.0 12.0 0.00 0.00 0.00 84 1014.2
20260903035019 70 221 5.0 12.0 0.00 0.00 0.00 84 1014.1
20260903034536 70 223 6.0 12.0 0.00 0.00 0.00 83 1014.2
20260903034022 70 224 5.0 12.0 0.00 0.00 0.00 82 1014.1
20260903033517 70 239 4.0 10.0 0.00 0.00 0.00 82 1014.1
20260903033035 70 234 5.0 9.0 0.00 0.00 0.00 81 1014.1
20260903032520 70 236 3.0 8.0 0.00 0.00 0.00 81 1014.1
20260903032019 70 267 4.0 9.0 0.00 0.00 0.00 80 1014.1
20260903031542 70 225 2.0 9.0 0.00 0.00 0.00 80 1014.1
20260903031026 70 272 3.0 12.0 0.00 0.00 0.00 80 1014.2
20260903030521 70 216 2.0 12.0 0.00 0.00 0.00 79 1014.1
20260903030048 70 242 4.0 10.0 0.00 0.00 0.00 79 1014.1
20260903025520 70 225 1.0 9.0 0.00 0.00 0.00 78 1014.1
20260903025019 70 224 3.0 9.0 0.00 0.00 0.00 78 1014.1
20260903024536 70 248 4.0 9.0 0.00 0.00 0.00 78 1014.1
20260903024020 70 264 2.0 10.0 0.00 0.00 0.00 77 1014.0
20260903023525 70 0 2.0 10.0 0.00 0.00 0.00 76 1013.9
20260903023034 70 254 2.0 10.0 0.00 0.00 0.00 77 1013.8
20260903022517 71 266 4.0 10.0 0.00 0.00 0.00 77 1013.9
20260903022022 71 269 3.0 10.0 0.00 0.00 0.00 76 1013.9
20260903021546 71 257 2.0 10.0 0.00 0.00 0.00 76 1014.0
20260903021021 71 266 3.0 10.0 0.00 0.00 0.00 77 1014.0
20260903020521 71 244 2.0 10.0 0.00 0.00 0.00 77 1014.0
20260903020039 71 234 4.0 10.0 0.00 0.00 0.00 77 1014.0
20260903015518 71 252 4.0 11.0 0.00 0.00 0.00 77 1014.0
20260903015018 71 223 4.0 11.0 0.00 0.00 0.00 76 1014.0
20260903014542 71 245 4.0 13.0 0.00 0.00 0.00 76 1014.0
20260903014025 71 236 4.0 13.0 0.00 0.00 0.00 76 1014.0
20260903013522 71 265 5.0 10.0 0.00 0.00 0.00 75 1014.0
20260903013037 72 224 2.0 11.0 0.00 0.00 0.00 75 1014.1
20260903012522 72 273 5.0 11.0 0.00 0.00 0.00 75 1014.1
20260903012020 72 277 4.0 10.0 0.00 0.00 0.00 75 1014.1
20260903011546 72 238 4.0 12.0 0.00 0.00 0.00 75 1014.1
20260903011021 72 282 5.0 12.0 0.00 0.00 0.00 74 1014.0
20260903010522 72 220 5.0 12.0 0.00 0.00 0.00 74 1014.0
20260903010038 73 237 5.0 15.0 0.00 0.00 0.00 74 1014.0
20260903005519 73 250 4.0 15.0 0.00 0.00 0.00 74 1014.1
20260903005019 73 223 6.0 11.0 0.00 0.00 0.00 74 1014.0
20260903004538 74 253 5.0 11.0 0.00 0.00 0.00 74 1014.0
20260903004018 73 269 5.0 12.0 0.00 0.00 0.00 74 1014.0
20260903003515 73 234 4.0 14.0 0.00 0.00 0.00 74 1014.0
20260903003036 73 222 6.0 14.0 0.00 0.00 0.00 74 1014.1
20260903002517 73 251 7.0 14.0 0.00 0.00 0.00 75 1014.1
20260903002020 74 222 6.0 13.0 0.00 0.00 0.00 75 1014.1
20260903001538 74 221 5.0 14.0 0.00 0.00 0.00 75 1014.1
20260903001019 74 252 6.0 15.0 0.00 0.00 0.00 76 1014.1
20260903000524 74 230 7.0 15.0 0.00 0.00 0.00 75 1014.1
20260903000049 75 205 5.0 13.0 0.00 0.00 0.00 75 1014.1
20260902235521 74 219 7.0 14.0 0.00 0.00 0.00 74 1014.1
20260902235021 75 260 5.0 14.0 0.00 0.00 0.00 75 1014.3
20260902234541 75 226 6.0 15.0 0.00 0.00 0.00 74 1014.3
20260902234019 74 208 6.0 15.0 0.00 0.00 0.00 74 1014.3
20260902233516 75 292 8.0 15.0 0.00 0.00 0.00 73 1014.3
20260902233046 75 227 6.0 14.0 0.00 0.00 0.00 74 1014.3
20260902232515 75 273 7.0 13.0 0.00 0.00 0.00 72 1014.3
20260902232016 76 286 6.0 14.0 0.00 0.00 0.00 72 1014.2
20260902231535 76 180 6.0 14.0 0.00 0.00 0.00 72 1014.3
20260902231018 76 229 6.0 14.0 0.00 0.00 0.00 73 1014.3
20260902230526 76 249 4.0 13.0 0.00 0.00 0.00 72 1014.4
20260902230052 75 261 5.0 14.0 0.00 0.00 0.00 73 1014.4
20260902225518 75 254 6.0 14.0 0.00 0.00 0.00 74 1014.5
20260902225021 75 209 6.0 13.0 0.00 0.00 0.00 74 1014.5
20260902224537 75 229 6.0 15.0 0.00 0.00 0.00 73 1014.5
20260902224016 75 254 6.0 15.0 0.00 0.00 0.00 73 1014.5
20260902223516 75 281 6.0 13.0 0.00 0.00 0.00 72 1014.6
20260902223039 76 267 5.0 13.0 0.00 0.00 0.00 70 1014.7
20260902222519 76 265 5.0 13.0 0.00 0.00 0.00 70 1014.7
20260902222018 77 244 4.0 13.0 0.00 0.00 0.00 70 1014.9
20260902221537 77 265 5.0 12.0 0.00 0.00 0.00 68 1014.9
20260902221018 76 232 5.0 12.0 0.00 0.00 0.00 69 1015.0
20260902220518 77 197 5.0 12.0 0.00 0.00 0.00 68 1015.0
20260902220044 77 194 5.0 12.0 0.00 0.00 0.00 67 1015.0
20260902215517 77 221 4.0 12.0 0.00 0.00 0.00 66 1015.1
20260902215017 77 226 4.0 12.0 0.00 0.00 0.00 65 1015.1
20260902214557 77 275 4.0 12.0 0.00 0.00 0.00 63 1015.2
20260902214019 77 267 6.0 12.0 0.00 0.00 0.00 64 1015.2
20260902213516 77 242 4.0 12.0 0.00 0.00 0.00 66 1015.3
20260902213034 76 262 5.0 12.0 0.00 0.00 0.00 66 1015.3
20260902212516 76 262 3.0 12.0 0.00 0.00 0.00 66 1015.3
20260902212018 76 244 5.0 12.0 0.00 0.00 0.00 65 1015.4
20260902211535 76 269 5.0 13.0 0.00 0.00 0.00 68 1015.4
20260902211021 75 270 5.0 13.0 0.00 0.00 0.00 69 1015.5
20260902210520 75 242 6.0 13.0 0.00 0.00 0.00 69 1015.5
20260902210038 75 270 4.0 11.0 0.00 0.00 0.00 69 1015.5
20260902205522 75 218 5.0 13.0 0.00 0.00 0.00 70 1015.6
20260902205018 75 253 6.0 13.0 0.00 0.00 0.00 68 1015.5
20260902204536 76 212 5.0 13.0 0.00 0.00 0.00 69 1015.6
20260902204019 76 242 5.0 13.0 0.00 0.00 0.00 68 1015.7
20260902203519 76 235 4.0 13.0 0.00 0.00 0.00 67 1015.7
20260902203038 76 215 3.0 13.0 0.00 0.00 0.00 68 1015.6
20260902202516 75 256 6.0 13.0 0.00 0.00 0.00 68 1015.7
20260902202015 75 211 7.0 14.0 0.00 0.00 0.00 67 1015.6
20260902201541 75 256 5.0 14.0 0.00 0.00 0.00 69 1015.7
20260902201018 75 257 5.0 12.0 0.00 0.00 0.00 70 1015.8
20260902200518 76 213 5.0 11.0 0.00 0.00 0.00 70 1015.9
20260902200037 75 258 4.0 11.0 0.00 0.00 0.00 70 1015.9
20260902195521 76 261 5.0 12.0 0.00 0.00 0.00 70 1016.0
20260902195019 76 237 4.0 12.0 0.00 0.00 0.00 70 1016.0
20260902194536 76 232 4.0 12.0 0.00 0.00 0.00 69 1015.9
20260902194016 76 228 5.0 12.0 0.00 0.00 0.00 68 1016.0
20260902193516 76 263 3.0 11.0 0.00 0.00 0.00 69 1016.0
20260902193037 76 242 5.0 11.0 0.00 0.00 0.00 69 1016.1
20260902192519 76 262 6.0 11.0 0.00 0.00 0.00 68 1016.1
20260902192018 75 257 4.0 11.0 0.00 0.00 0.00 70 1016.2
20260902191541 75 217 4.0 11.0 0.00 0.00 0.00 70 1016.3
20260902191021 75 287 4.0 9.0 0.00 0.00 0.00 71 1016.3
20260902190523 75 221 4.0 10.0 0.00 0.00 0.00 71 1016.4
20260902190035 74 264 3.0 10.0 0.00 0.00 0.00 72 1016.4
20260902185519 74 284 5.0 10.0 0.00 0.00 0.00 72 1016.4
20260902185024 75 227 5.0 10.0 0.00 0.00 0.00 72 1016.5
20260902184544 75 238 4.0 12.0 0.00 0.00 0.00 71 1016.4
20260902184023 75 241 5.0 12.0 0.00 0.00 0.00 72 1016.4
20260902183518 75 223 4.0 12.0 0.00 0.00 0.00 72 1016.5
20260902183042 75 242 6.0 12.0 0.00 0.00 0.00 72 1016.5
20260902182516 75 238 5.0 11.0 0.00 0.00 0.00 72 1016.5
20260902182019 75 266 5.0 11.0 0.00 0.00 0.00 72 1016.3
20260902181536 75 238 3.0 9.0 0.00 0.00 0.00 73 1016.4
20260902181018 75 253 4.0 9.0 0.00 0.00 0.00 73 1016.3
20260902180521 75 240 3.0 9.0 0.00 0.00 0.00 73 1016.4
20260902180039 75 281 3.0 9.0 0.00 0.00 0.00 73 1016.4
20260902175519 74 272 3.0 9.0 0.00 0.00 0.00 74 1016.4
20260902175021 74 262 3.0 10.0 0.00 0.00 0.00 74 1016.5
20260902174546 74 246 3.0 10.0 0.00 0.00 0.00 72 1016.5
20260902174019 74 277 4.0 11.0 0.00 0.00 0.00 73 1016.5
20260902173516 74 259 4.0 11.0 0.00 0.00 0.00 73 1016.4
20260902173056 74 301 4.0 9.0 0.00 0.00 0.00 73 1016.4
20260902172521 74 244 3.0 8.0 0.00 0.00 0.00 72 1016.3
20260902172025 75 263 3.0 8.0 0.00 0.00 0.00 73 1016.4
20260902171543 74 264 2.0 8.0 0.00 0.00 0.00 73 1016.3
20260902171025 75 237 1.0 6.0 0.00 0.00 0.00 73 1016.2
20260902170516 75 270 1.0 6.0 0.00 0.00 0.00 72 1016.2
20260902170036 75 288 2.0 6.0 0.00 0.00 0.00 72 1016.2
20260902165520 75 360 1.0 4.0 0.00 0.00 0.00 72 1016.2
20260902165017 75 242 1.0 4.0 0.00 0.00 0.00 72 1016.2
20260902164539 75 286 1.0 5.0 0.00 0.00 0.00 70 1016.3
20260902164019 75 266 1.0 5.0 0.00 0.00 0.00 70 1016.1
20260902163520 75 0 1.0 4.0 0.00 0.00 0.00 70 1016.2
20260902163036 74 130 1.0 4.0 0.00 0.00 0.00 71 1016.2
20260902162517 74 0 0.0 3.0 0.00 0.00 0.00 72 1016.2
20260902162019 74 355 1.0 3.0 0.00 0.00 0.00 72 1016.2
20260902161537 73 0 0.0 5.0 0.00 0.00 0.00 74 1016.2
20260902161019 73 128 0.0 5.0 0.00 0.00 0.00 74 1016.2
20260902160516 73 147 1.0 5.0 0.00 0.00 0.00 75 1016.3
20260902160050 73 146 2.0 5.0 0.00 0.00 0.00 76 1016.2
20260902155522 73 0 1.0 4.0 0.00 0.00 0.00 76 1016.1
20260902155019 72 110 1.0 3.0 0.00 0.00 0.00 77 1016.1
20260902154543 72 86 0.0 3.0 0.00 0.00 0.00 78 1016.1
20260902154020 72 0 1.0 3.0 0.00 0.00 0.00 78 1016.2
20260902153520 71 0 0.0 3.0 0.00 0.00 0.00 79 1016.1
20260902153041 72 57 0.0 4.0 0.00 0.00 0.00 78 1016.1
20260902152519 71 68 0.0 4.0 0.00 0.00 0.00 80 1016.0
20260902152019 71 101 0.0 4.0 0.00 0.00 0.00 81 1016.1
20260902151537 70 161 0.0 2.0 0.00 0.00 0.00 81 1016.1
20260902151019 69 0 0.0 2.0 0.00 0.00 0.00 83 1016.1
20260902150516 68 0 0.0 0.0 0.00 0.00 0.00 85 1016.1
20260902150035 67 0 0.0 0.0 0.00 0.00 0.00 89 1016.2
20260902145518 66 0 0.0 0.0 0.00 0.00 0.00 89 1016.2
20260902145021 65 0 0.0 0.0 0.00 0.00 0.00 91 1016.1
20260902144536 65 0 0.0 0.0 0.00 0.00 0.00 92 1016.1
20260902144019 64 0 0.0 0.0 0.00 0.00 0.00 93 1016.1
20260902143518 63 0 0.0 0.0 0.00 0.00 0.00 93 1016.1
20260902143040 62 0 0.0 0.0 0.00 0.00 0.00 94 1016.1
20260902142523 61 0 0.0 0.0 0.00 0.00 0.00 94 1016.0
20260902142018 60 0 0.0 0.0 0.00 0.00 0.00 94 1015.8
20260902141546 60 0 0.0 0.0 0.00 0.00 0.00 93 1015.8
20260902141019 59 0 0.0 0.0 0.00 0.00 0.00 93 1015.7
20260902140516 59 0 0.0 0.0 0.00 0.00 0.00 94 1015.7
20260902140034 59 0 0.0 0.0 0.00 0.00 0.00 94 1015.7
20260902135515 58 0 0.0 0.0 0.00 0.00 0.00 94 1015.7
20260902135018 58 0 0.0 0.0 0.00 0.00 0.00 93 1015.5
20260902134536 58 0 0.0 0.0 0.00 0.00 0.00 92 1015.5
20260902134023 58 0 0.0 0.0 0.00 0.00 0.00 92 1015.4
20260902133521 58 0 0.0 0.0 0.00 0.00 0.00 92 1015.3
20260902133050 58 0 0.0 0.0 0.00 0.00 0.00 92 1015.4
20260902132522 58 0 0.0 0.0 0.00 0.00 0.00 92 1015.3
20260902132020 58 0 0.0 0.0 0.00 0.00 0.00 92 1015.2
20260902131549 58 0 0.0 0.0 0.00 0.00 0.00 92 1015.2
20260902131022 58 0 0.0 0.0 0.00 0.00 0.00 92 1015.3
20260902130518 58 0 0.0 0.0 0.00 0.00 0.00 92 1015.3
20260902130035 58 0 0.0 0.0 0.00 0.00 0.00 92 1015.2
20260902125521 58 0 0.0 0.0 0.00 0.00 0.00 92 1015.2
20260902125019 58 0 0.0 0.0 0.00 0.00 0.00 92 1015.1
20260902124535 58 0 0.0 0.0 0.00 0.00 0.00 92 1015.1
20260902124023 58 0 0.0 0.0 0.00 0.00 0.00 91 1015.2
20260902123519 58 0 0.0 0.0 0.00 0.00 0.00 91 1015.2
20260902123057 58 0 0.0 0.0 0.00 0.00 0.00 92 1015.3
20260902122520 58 0 0.0 0.0 0.00 0.00 0.00 92 1015.3
20260902122018 58 0 0.0 0.0 0.00 0.00 0.00 92 1015.3
20260902121534 59 0 0.0 0.0 0.00 0.00 0.00 91 1015.4
20260902121016 59 0 0.0 0.0 0.00 0.00 0.00 91 1015.4
20260902120517 59 0 0.0 0.0 0.00 0.00 0.00 91 1015.4
20260902120037 59 0 0.0 0.0 0.00 0.00 0.00 91 1015.4
20260902115616 59 0 0.0 0.0 0.00 0.00 0.00 91 1015.4
20260902115022 59 0 0.0 0.0 0.00 0.00 0.00 91 1015.4
20260902114541 59 0 0.0 0.0 0.00 0.00 0.00 91 1015.4
20260902114020 59 0 0.0 0.0 0.00 0.00 0.00 91 1015.4
20260902113519 59 0 0.0 0.0 0.00 0.00 0.00 91 1015.4
20260902113034 60 0 0.0 0.0 0.00 0.00 0.00 91 1015.4
20260902112519 60 0 0.0 0.0 0.00 0.00 0.00 91 1015.4
20260902112019 60 0 0.0 0.0 0.00 0.00 0.00 91 1015.5
20260902111546 60 0 0.0 0.0 0.00 0.00 0.00 91 1015.5
20260902111017 60 0 0.0 0.0 0.00 0.00 0.00 91 1015.5
20260902110523 60 0 0.0 0.0 0.00 0.00 0.00 90 1015.5
20260902110037 60 0 0.0 0.0 0.00 0.00 0.00 90 1015.5
20260902105522 60 0 0.0 0.0 0.00 0.00 0.00 90 1015.4
20260902105016 60 0 0.0 0.0 0.00 0.00 0.00 90 1015.4
20260902104538 60 0 0.0 0.0 0.00 0.00 0.00 90 1015.4
20260902104018 60 0 0.0 0.0 0.00 0.00 0.00 90 1015.2
20260902103518 61 0 0.0 0.0 0.00 0.00 0.00 90 1015.3
20260902103039 61 0 0.0 0.0 0.00 0.00 0.00 90 1015.3
20260902102521 61 0 0.0 0.0 0.00 0.00 0.00 90 1015.3
20260902102019 61 0 0.0 0.0 0.00 0.00 0.00 90 1015.3
20260902101542 61 0 0.0 0.0 0.00 0.00 0.00 90 1015.2
20260902101018 61 0 0.0 0.0 0.00 0.00 0.00 89 1015.3
20260902100519 61 0 0.0 0.0 0.00 0.00 0.00 89 1015.4
20260902100036 61 0 0.0 0.0 0.00 0.00 0.00 89 1015.5
20260902095519 61 0 0.0 0.0 0.00 0.00 0.00 89 1015.5
20260902095018 61 0 0.0 0.0 0.00 0.00 0.00 89 1015.6
20260902094538 61 0 0.0 0.0 0.00 0.00 0.00 89 1015.6
20260902094023 62 0 0.0 0.0 0.00 0.00 0.00 89 1015.6
20260902093520 62 0 0.0 0.0 0.00 0.00 0.00 89 1015.7
20260902093037 62 0 0.0 0.0 0.00 0.00 0.00 89 1015.5
20260902092517 62 0 0.0 0.0 0.00 0.00 0.00 88 1015.6
20260902092018 62 0 0.0 0.0 0.00 0.00 0.00 89 1015.6
20260902091537 62 0 0.0 0.0 0.00 0.00 0.00 89 1015.5
20260902091024 62 0 0.0 0.0 0.00 0.00 0.00 88 1015.5
20260902090516 62 0 0.0 0.0 0.00 0.00 0.00 88 1015.5
20260902090041 62 0 0.0 0.0 0.00 0.00 0.00 88 1015.6
20260902085518 63 0 0.0 0.0 0.00 0.00 0.00 87 1015.6
20260902085019 63 0 0.0 0.0 0.00 0.00 0.00 88 1015.6
20260902084547 63 0 0.0 0.0 0.00 0.00 0.00 88 1015.7
20260902084018 63 0 0.0 0.0 0.00 0.00 0.00 87 1015.6
20260902083523 63 0 0.0 0.0 0.00 0.00 0.00 87 1015.6
20260902083041 63 0 0.0 1.0 0.00 0.00 0.00 87 1015.6
20260902082520 63 0 0.0 2.0 0.00 0.00 0.00 87 1015.7
20260902082020 64 0 0.0 2.0 0.00 0.00 0.00 88 1015.7
20260902081539 64 0 0.0 0.0 0.00 0.00 0.00 87 1015.7
20260902081017 64 0 0.0 1.0 0.00 0.00 0.00 87 1015.6
20260902080518 64 0 0.0 1.0 0.00 0.00 0.00 87 1015.6
20260902080037 64 0 0.0 1.0 0.00 0.00 0.00 87 1015.6
20260902075519 64 0 0.0 0.0 0.00 0.00 0.00 87 1015.6
20260902075018 64 0 0.0 0.0 0.00 0.00 0.00 87 1015.7
20260902074536 64 0 0.0 0.0 0.00 0.00 0.00 87 1015.7
20260902074021 64 0 0.0 0.0 0.00 0.00 0.00 86 1015.7
20260902073527 64 0 0.0 0.0 0.00 0.00 0.00 86 1015.6
20260902073038 64 0 0.0 0.0 0.00 0.00 0.00 86 1015.5
20260902072519 64 0 0.0 0.0 0.00 0.00 0.00 85 1015.4
20260902072022 64 0 0.0 0.0 0.00 0.00 0.00 86 1015.4
20260902071543 65 0 0.0 0.0 0.00 0.00 0.00 85 1015.3
20260902071017 65 0 0.0 0.0 0.00 0.00 0.00 85 1015.2
20260902070516 65 0 0.0 0.0 0.00 0.00 0.00 85 1015.3
20260902070043 65 0 0.0 0.0 0.00 0.00 0.00 85 1015.3
20260902065518 65 0 0.0 0.0 0.00 0.00 0.00 85 1015.2
20260902065020 65 0 0.0 0.0 0.00 0.00 0.00 84 1015.2
20260902064541 66 0 0.0 2.0 0.00 0.00 0.00 84 1015.2
20260902064019 66 0 0.0 2.0 0.00 0.00 0.00 84 1015.2
20260902063524 66 161 0.0 2.0 0.00 0.00 0.00 84 1015.2
20260902063037 66 0 0.0 2.0 0.00 0.00 0.00 83 1015.2
20260902062520 66 0 0.0 2.0 0.00 0.00 0.00 83 1015.3
20260902062019 67 0 0.0 1.0 0.00 0.00 0.00 83 1015.4
20260902061541 67 0 0.0 2.0 0.00 0.00 0.00 83 1015.3
20260902061022 67 0 0.0 2.0 0.00 0.00 0.00 82 1015.3
20260902060519 67 194 0.0 4.0 0.00 0.00 0.00 82 1015.3
20260902060040 68 0 0.0 5.0 0.00 0.00 0.00 82 1015.3
20260902055522 68 0 1.0 5.0 0.00 0.00 0.00 82 1015.2
20260902055018 68 182 0.0 4.0 0.00 0.00 0.00 82 1015.2
20260902054536 68 0 0.0 4.0 0.00 0.00 0.00 82 1015.1
20260902054019 68 221 1.0 4.0 0.00 0.00 0.00 83 1015.1
20260902053519 68 0 0.0 4.0 0.00 0.00 0.00 82 1015.1
20260902053036 68 0 0.0 4.0 0.00 0.00 0.00 82 1015.1
20260902052523 68 0 0.0 3.0 0.00 0.00 0.00 82 1015.1
20260902052021 68 245 0.0 6.0 0.00 0.00 0.00 81 1015.1